Dewpoint
47 37 35 36 37 38 40 38 38 38 38 39 40 38 37 37 37 39 41 45 47 43 43 44 46 47 48 48 51 53 54 54 53 53 54 55 55 56 57 57 58 58 59 61 62 62 62 63 63 64 64 64 64 64 65 64 64 63 63 62 61 62 61 60 58 58 56 55 54 54 53 53 54 54 55 54 53 53 53 54 54 56 55 54 57 55
45 38 38 39 40 41 42 41 41 41 42 40 39 39 38 37 34 40 45 47 48 43 41 45 46 47 48 49 51 53 53 53 53 53 54 55 55 55 57 57 58 59 60 61 61 62 62 63 63 63 63 63 63 63 64 64 63 63 62 62 61 61 60 59 58 58 57 55 54 53 52 52 54 56 53 52 52 52 52 55 55 56 54 53 55 57
41 38 40 43 45 45 44 42 42 40 40 42 39 37 36 36 38 43 44 47 48 43 41 44 44 46 48 50 52 52 52 53 55 55 55 55 54 55 57 57 58 59 59 60 61 62 62 62 62 63 63 63 63 63 63 63 63 63 62 61 61 61 60 59 59 58 56 56 56 54 53 52 54 55 55 53 55 55 52 54 54 56 54 53 53 56
39 41 45 47 45 44 44 43 42 42 42 40 38 36 35 36 38 37 43 45 47 43 42 44 44 44 47 49 50 52 52 54 55 55 56 56 55 56 56 57 57 58 58 59 60 61 62 62 62 62 62 62 62 63 62 63 63 63 63 61 61 61 60 59 60 60 58 57 57 56 54 55 54 53 58 54 54 52 52 52 52 53 54 53 53 53
40 42 49 49 47 44 42 43 41 38 37 39 39 37 35 38 39 37 39 45 45 46 46 43 41 43 46 47 50 52 54 53 54 55 56 57 57 57 57 57 58 58 58 59 59 60 61 61 61 61 62 62 62 62 62 63 63 63 62 62 61 61 60 59 61 60 59 58 55 56 55 55 53 53 52 52 51 52 54 55 52 51 54 53 52 52
43 44 49 46 48 46 44 42 41 40 37 38 40 40 39 39 40 43 43 41 37 38 43 41 33 38 44 47 48 50 50 51 54 53 54 56 56 56 56 57 58 59 59 59 59 60 61 61 61 61 61 61 62 62 62 63 63 63 62 62 61 61 60 60 60 60 59 57 54 54 53 51 51 50 51 50 50 50 50 50 52 53 53 53 53 51
42 49 48 45 47 47 45 43 43 42 37 34 35 44 42 42 42 41 40 37 32 32 42 44 35 35 42 45 48 50 50 50 53 52 54 55 56 56 56 57 58 58 59 59 59 60 60 61 61 61 61 61 62 62 63 63 63 64 63 62 61 61 60 60 61 60 60 56 55 53 52 52 51 51 51 51 52 51 51 53 52 51 52 52 51 51
49 47 46 47 46 45 43 41 43 42 37 35 40 46 45 43 42 41 40 38 36 42 44 45 39 34 34 40 47 50 49 50 50 51 53 53 55 56 56 57 57 58 58 59 59 60 60 61 61 61 61 61 62 62 63 63 63 63 63 63 61 61 61 60 61 60 59 56 55 54 53 54 52 51 51 52 52 52 55 53 53 52 51 52 51 50
46 45 46 45 45 43 42 44 46 42 38 37 45 47 45 44 43 42 41 39 40 38 33 41 41 32 33 38 45 48 46 47 48 51 53 54 55 55 56 57 58 58 58 59 59 60 60 60 61 61 61 61 62 62 63 63 63 63 63 63 62 62 61 60 61 60 58 58 56 54 53 54 54 53 54 55 56 53 57 53 53 51 51 52 51 50
45 44 46 46 44 42 45 46 47 46 43 46 49 48 47 46 45 42 39 37 37 36 35 41 42 30 30 36 42 44 45 46 47 49 51 53 53 54 55 57 57 58 58 59 59 60 60 60 60 61 61 61 61 62 63 63 63 63 63 63 62 62 62 61 61 60 58 58 57 55 54 53 53 56 54 54 54 53 54 52 52 51 51 51 51 50
44 55 50 46 44 45 47 47 48 48 47 50 48 44 43 43 41 41 39 37 33 31 36 43 43 36 30 35 41 43 44 48 50 51 52 52 54 55 55 56 57 58 58 58 59 60 60 60 60 61 61 61 61 61 62 61 62 62 62 62 62 62 63 62 61 60 58 57 56 55 54 53 53 54 53 53 53 53 52 51 51 51 51 51 50 50
46 47 46 46 52 47 46 45 48 50 50 49 45 43 40 38 39 36 34 36 30 30 38 44 43 40 31 35 43 48 50 51 51 51 51 52 52 53 54 56 57 58 58 58 59 60 60 60 60 60 60 61 61 61 61 61 62 62 62 62 62 62 62 62 62 61 59 57 56 55 54 53 53 54 53 52 52 52 51 51 51 52 51 50 50 51
41 42 44 45 53 46 47 45 44 47 48 47 44 41 36 32 33 30 32 29 29 32 40 44 41 36 36 41 47 50 51 52 52 51 52 52 52 52 55 56 57 57 58 58 59 60 60 60 60 59 60 60 61 61 61 61 61 62 62 62 62 62 62 62 62 61 59 57 56 55 54 54 54 54 53 51 52 52 52 52 52 51 51 51 50 50
37 40 44 46 44 49 45 41 40 41 44 43 40 37 33 30 27 27 30 32 32 39 43 43 42 35 41 45 50 51 52 54 54 54 53 53 53 53 55 56 57 57 58 58 59 60 60 60 60 59 60 61 61 61 61 61 62 62 62 62 61 61 62 62 62 61 59 57 57 56 55 54 56 54 54 53 52 52 53 52 52 51 52 51 51 50
32 33 39 47 41 45 44 43 43 40 42 42 44 41 36 32 32 29 31 30 32 34 38 42 37 36 38 43 52 52 54 56 56 56 54 54 54 55 56 56 56 56 56 58 59 59 60 60 60 59 60 60 60 61 62 62 62 62 61 61 61 61 62 62 62 60 59 58 57 57 56 55 56 54 55 54 54 53 52 53 52 52 52 52 51 50
37 35 38 46 46 44 42 45 46 45 43 44 46 45 42 39 38 33 35 35 36 34 33 38 38 43 44 51 53 55 55 55 54 54 55 55 56 56 56 56 56 57 57 59 59 59 60 60 59 60 61 61 60 61 61 62 62 61 61 62 62 62 62 61 61 60 59 58 58 58 57 56 57 58 56 56 56 55 54 53 52 53 53 53 52 52
33 32 38 43 44 45 44 46 45 45 37 41 42 38 42 46 41 33 33 37 38 34 34 38 40 43 49 51 52 52 53 54 54 54 54 55 56 57 57 57 58 58 59 59 59 59 60 59 59 60 61 61 61 60 61 61 61 61 62 62 61 61 62 61 61 61 60 60 59 58 58 58 58 58 56 55 55 55 55 55 54 53 53 54 54 53
33 35 38 41 41 42 48 46 47 47 43 41 37 41 49 47 43 37 31 31 31 32 33 39 38 39 40 37 50 50 51 52 54 54 55 55 56 56 57 58 58 58 59 60 60 60 60 60 60 60 61 61 61 60 61 62 62 62 62 62 62 61 61 61 61 61 60 60 60 59 59 59 59 58 58 57 56 56 55 55 55 55 54 54 53 54
39 32 36 42 44 44 48 49 46 46 46 43 41 45 40 34 35 38 33 30 26 31 32 36 40 40 42 42 47 48 50 51 52 54 54 55 56 56 57 58 58 59 59 60 60 59 59 59 59 60 60 61 61 61 61 62 63 62 62 62 62 61 61 61 61 61 61 61 60 59 60 61 61 60 59 59 59 58 56 55 55 55 55 55 55 56
39 34 34 37 42 43 45 42 36 44 46 51 48 44 46 41 35 34 36 37 37 31 32 35 39 35 45 45 48 49 51 51 52 52 53 55 56 57 57 57 57 58 58 59 60 60 60 60 60 60 61 61 61 61 61 61 62 62 62 62 61 61 61 61 61 61 61 61 61 61 61 61 61 61 60 61 60 57 56 56 56 55 57 57 56 56
37 36 29 35 38 41 38 40 39 43 40 42 41 38 39 40 44 40 37 36 34 31 30 33 33 38 44 50 49 50 52 52 53 53 54 55 56 57 57 57 57 58 58 58 59 60 60 60 61 61 61 62 62 62 62 61 61 62 62 62 62 61 61 61 61 61 61 61 61 61 61 61 61 61 61 61 60 59 58 58 58 59 57 58 57 57
34 35 31 34 37 37 38 40 41 42 43 41 40 37 40 40 36 32 30 36 35 31 28 31 33 39 46 52 51 51 53 53 54 54 55 55 56 56 56 57 58 58 58 59 59 60 60 61 61 62 62 62 62 62 62 62 62 62 62 62 62 61 61 61 61 61 61 61 61 61 61 61 61 61 61 61 61 61 61 61 61 60 60 59 58 57
40 37 36 31 34 36 38 40 40 43 45 43 42 39 42 38 36 31 29 33 34 35 36 35 34 35 48 52 53 53 54 54 55 55 55 55 56 56 57 57 58 58 58 59 59 59 60 60 61 62 62 61 61 61 61 61 61 61 61 61 61 61 60 61 61 61 61 60 60 60 60 60 60 61 61 61 60 61 61 61 61 62 61 61 61 59
58 36 33 33 33 34 34 37 44 45 45 41 40 43 40 37 37 35 33 35 33 34 31 28 30 33 44 51 53 54 54 55 56 55 55 56 56 57 57 57 57 57 58 59 59 59 59 60 60 60 60 60 60 60 60 61 61 61 61 61 61 60 60 60 61 61 60 60 60 60 60 60 60 60 61 60 59 60 60 61 61 62 62 62 61 61
33 34 34 28 27 28 30 34 36 39 43 40 39 41 42 41 39 39 37 36 34 33 32 28 29 30 42 52 53 53 54 54 55 56 56 55 56 56 56 56 56 56 57 58 58 59 59 60 60 60 60 60 61 61 61 61 61 61 61 60 60 60 61 61 61 60 60 60 59 59 59 59 59 59 59 60 59 60 60 60 61 61 61 61 61 61
38 37 32 28 25 23 23 25 29 34 36 39 43 44 43 40 38 37 32 32 29 34 35 31 30 38 48 52 52 52 54 54 55 56 56 56 56 55 56 56 56 56 56 57 57 57 57 58 58 59 59 60 60 60 60 60 60 60 61 61 61 61 60 60 61 61 61 61 61 61 60 60 60 60 60 60 60 59 60 60 60 60 60 61 60 60
38 37 33 30 27 26 28 33 37 39 39 39 41 43 43 41 40 38 35 30 30 35 35 35 38 43 47 50 51 52 54 53 54 55 55 55 55 55 55 54 54 54 55 55 55 56 56 57 57 58 58 59 59 59 59 59 59 59 59 60 60 61 61 61 61 61 60 60 60 60 60 60 60 60 60 60 60 59 59 59 60 60 60 61 61 60
37 34 37 35 35 36 37 38 40 43 40 41 42 42 42 42 39 37 33 31 36 36 31 38 44 44 46 50 51 52 54 54 54 55 55 55 54 54 54 54 54 54 53 54 54 54 54 55 56 57 58 58 59 59 59 59 59 59 59 59 60 60 60 60 60 59 59 58 58 58 59 59 60 59 59 59 59 58 58 59 59 59 60 60 60 60
37 31 37 38 38 40 42 42 43 42 43 43 43 42 41 42 40 37 37 38 36 31 31 40 43 43 47 50 51 53 54 54 54 54 55 55 54 54 54 53 53 53 53 52 52 53 54 55 56 56 57 58 58 57 57 56 56 57 57 58 59 59 59 59 59 59 59 59 59 59 59 60 59 59 59 59 59 59 59 59 59 59 59 59 59 59
38 34 37 40 37 38 39 42 44 43 42 43 43 43 43 42 41 40 40 41 38 37 38 43 42 42 47 50 52 54 55 54 55 55 55 54 54 53 52 52 51 51 51 51 51 52 53 54 55 55 55 55 55 55 55 55 55 56 56 56 57 58 59 60 59 59 60 60 60 60 60 60 60 60 60 59 59 59 59 59 59 59 59 59 59 59
37 31 41 37 34 35 38 42 42 42 42 41 42 44 44 42 42 42 42 42 44 43 43 42 42 42 47 50 52 54 54 55 55 54 54 53 53 52 50 49 49 49 49 50 51 52 53 53 54 54 54 54 54 54 54 54 55 55 55 55 56 57 58 59 59 60 60 60 60 60 60 60 60 60 60 60 60 60 59 59 59 59 58 58 58 58
40 33 36 33 31 33 37 40 41 39 41 40 40 42 44 43 39 40 39 42 40 41 41 42 41 41 46 51 52 53 54 54 53 52 52 51 52 50 49 48 48 48 49 50 51 52 52 53 53 53 53 53 54 54 54 54 54 54 54 54 54 55 56 57 58 59 60 60 60 60 60 60 60 59 59 59 59 59 58 58 58 57 57 57 57 56
39 36 34 31 31 28 34 39 38 35 34 33 35 39 44 43 42 42 42 44 43 44 43 39 41 43 49 52 52 53 53 53 52 51 51 51 50 49 48 48 48 49 49 50 51 51 51 51 52 52 53 53 53 53 53 54 53 53 52 52 52 53 53 54 56 57 58 58 58 58 59 59 59 58 58 58 58 57 57 56 56 56 56 56 56 54
40 37 34 33 31 28 35 36 35 32 26 27 36 42 45 44 42 41 41 43 44 43 41 42 44 48 50 52 52 52 52 52 51 51 51 50 49 48 48 48 48 48 49 49 50 50 51 51 51 52 52 52 52 53 53 53 52 52 51 50 50 50 51 52 53 54 55 57 57 57 57 57 56 56 56 56 56 56 55 54 54 54 55 55 54 52
39 35 33 31 31 30 32 32 32 25 26 34 41 45 46 46 45 44 44 44 45 45 47 48 49 49 50 51 52 53 51 50 51 50 50 50 49 48 48 48 48 49 49 49 49 50 50 50 51 51 51 52 52 51 51 50 50 49 49 49 48 48 48 49 50 51 53 54 55 56 55 55 54 54 54 54 54 53 52 51 51 51 52 51 51 51
36 32 32 30 30 30 29 26 26 25 32 38 42 45 47 46 45 44 42 44 44 45 47 47 48 49 49 49 49 48 48 49 49 50 49 49 49 48 48 48 48 49 49 49 49 49 49 50 50 50 50 52 50 50 50 49 49 48 48 48 48 47 47 48 48 49 51 52 53 54 54 53 53 53 52 52 51 50 50 49 49 48 49 49 49 48
40 36 33 32 32 29 27 26 31 33 37 41 42 44 45 42 42 39 35 40 43 46 47 48 47 47 47 47 47 48 48 48 47 48 51 49 48 48 48 48 49 49 49 49 49 49 49 49 50 50 50 49 49 48 48 48 48 47 47 46 46 46 46 47 47 48 49 49 50 52 53 53 52 52 52 51 51 50 50 49 49 49 49 47 47 47
41 39 34 33 32 32 29 28 30 24 25 32 37 43 46 47 47 45 42 40 44 47 48 48 47 47 47 47 47 47 48 48 46 46 48 47 46 46 47 47 48 48 47 47 47 47 48 48 49 50 48 48 48 48 48 47 47 47 46 46 45 45 45 45 46 47 48 48 49 49 51 53 53 52 51 51 50 50 49 49 49 49 48 47 46 46
40 38 38 33 31 30 29 30 29 27 27 33 38 43 45 48 49 47 40 37 42 48 49 47 46 46 46 46 47 48 48 46 44 45 47 45 45 46 46 46 46 46 46 46 46 46 47 48 48 49 48 47 47 47 47 46 46 45 45 46 44 44 43 44 45 45 46 47 48 48 49 51 52 52 51 50 49 48 49 50 50 49 48 47 47 47
39 36 33 32 29 29 24 28 29 31 30 41 43 44 48 50 49 42 34 33 41 47 48 47 46 46 46 46 47 48 47 45 44 45 46 43 43 45 45 44 44 44 43 44 44 45 46 48 46 46 46 46 47 47 47 47 47 49 46 45 45 44 45 45 45 45 45 45 46 47 49 50 53 52 51 51 50 49 49 49 49 47 47 46 46 47
32 31 32 32 27 30 29 27 30 30 37 42 46 48 50 50 41 34 32 35 43 47 47 46 46 46 46 47 48 46 46 48 48 47 47 42 42 42 42 43 43 42 42 42 43 45 42 42 43 43 43 44 46 47 47 46 46 47 47 46 45 45 46 46 46 46 44 44 44 45 46 46 46 48 49 50 49 50 51 50 49 47 47 48 48 47
32 34 31 30 28 29 30 31 31 32 36 45 49 48 48 39 34 32 38 48 48 47 45 46 47 48 48 48 47 46 47 46 45 43 44 42 42 42 42 42 42 43 44 46 45 43 41 41 41 42 42 43 44 46 46 46 45 45 44 43 42 43 45 46 46 46 45 44 45 46 45 46 47 47 47 48 49 48 50 48 49 49 48 47 48 48
35 33 32 31 31 30 25 25 27 27 40 47 50 47 45 36 35 44 50 51 50 47 48 49 49 48 47 46 47 47 47 46 46 46 45 43 41 41 41 41 41 40 40 40 40 41 40 39 39 40 41 42 43 42 42 41 42 42 41 39 40 41 44 47 46 46 46 45 44 46 47 48 46 46 47 47 47 45 46 45 46 48 49 48 48 48
39 32 24 28 32 30 28 29 30 36 46 51 50 40 43 46 51 52 51 48 49 50 50 48 47 48 48 47 47 47 46 45 45 45 44 43 41 41 41 41 41 41 41 41 41 40 40 39 39 39 40 41 42 43 42 42 42 43 40 38 40 42 45 44 43 42 42 42 41 41 42 45 47 46 45 46 45 45 44 43 44 45 46 47 48 48
42 43 37 38 38 33 32 33 43 50 52 52 52 52 52 52 52 53 52 49 49 49 50 48 48 48 48 48 47 47 47 47 46 45 45 44 44 43 40 40 40 39 39 39 40 41 38 37 37 37 37 38 40 41 42 41 41 42 39 39 45 45 43 43 44 41 39 39 39 40 39 41 41 43 44 44 43 41 44 43 43 43 42 44 44 46
48 48 47 45 44 47 48 49 51 51 51 52 53 53 52 51 51 52 51 50 50 50 49 48 49 49 49 49 48 48 47 46 46 46 45 45 45 44 43 40 40 40 40 39 39 40 39 39 39 39 38 37 39 40 43 40 41 39 38 41 43 44 43 44 43 41 40 41 41 39 40 38 39 41 42 43 43 43 42 40 43 43 41 42 42 42
44 47 45 44 47 41 37 47 48 48 49 49 50 50 51 51 51 52 52 53 52 52 51 51 50 50 49 49 48 47 47 47 46 45 46 44 42 41 40 39 40 39 39 39 41 41 39 39 40 41 42 39 38 39 41 40 41 41 42 44 42 42 43 44 44 45 43 38 39 39 39 37 39 44 41 39 40 42 45 45 42 41 43 43 42 41
43 49 44 43 43 41 42 47 48 48 48 49 49 49 49 52 52 53 53 53 53 52 52 51 50 50 50 48 48 47 46 46 45 44 43 42 41 40 40 40 40 41 41 41 41 41 39 39 39 40 41 38 36 38 40 41 38 39 41 41 40 42 42 45 44 37 36 37 38 40 39 39 44 46 39 38 38 39 40 41 42 41 40 39 39 38
47 49 39 45 44 46 49 49 49 48 46 47 48 49 51 52 52 52 52 52 51 50 50 50 50 49 48 47 47 47 45 44 41 41 40 41 41 41 41 40 40 40 40 38 39 39 37 40 40 41 43 38 38 38 39 39 38 40 40 40 41 42 40 40 41 45 41 38 38 38 41 41 40 39 38 37 38 39 40 40 41 41 40 40 38 38
46 43 46 43 38 36 40 45 48 40 40 46 47 48 49 51 52 51 51 50 49 49 48 48 47 47 47 46 44 41 40 40 41 41 40 40 40 40 40 40 39 39 38 40 42 41 42 45 41 43 43 41 39 39 41 41 41 41 40 40 40 41 39 42 42 40 39 39 40 39 40 40 40 39 39 38 38 37 38 40 42 41 41 41 42 39
46 47 45 37 36 38 46 48 47 47 46 47 48 47 47 50 50 49 49 49 48 48 47 46 45 44 42 43 42 41 41 41 41 41 40 39 39 39 39 38 38 37 38 42 38 38 40 41 48 45 43 43 43 42 41 41 40 39 39 39 40 40 39 39 40 40 40 40 39 39 40 40 39 38 38 38 38 38 37 37 36 36 38 39 41 39